Abakan, Russia

12:18 PM +07 on December 06, 2019 (GMT +0700)
Abakan

Weather History for UNAA - November, 2019

Change the Weather History Date:

Tuesday, November 19, 2019

  Actual Average Record
Temperature  
Mean Temperature 26 °F -  
Max Temperature 30 °F - - ()
Min Temperature 23 °F - - ()
Degree Days  
Heating Degree Days 38    
Moisture  
Dew Point 20 °F    
Average Humidity 75    
Maximum Humidity 86    
Minimum Humidity 64    
Precipitation  
Precipitation 0.00 in - - ()
Sea Level Pressure  
Sea Level Pressure 29.90 in    
Wind  
Wind Speed 9 mph ()    
Max Wind Speed 16 mph    
Max Gust Speed -    
Visibility 5.1 miles    
Events      
T = Trace of Precipitation, MM = Missing Value Source: Averaged Metar Reports

Daily Weather History Graph

Daily Weather History Graph

Search for Another Location

Airport or City:

Astronomy

Nov. 19, 2019 Rise Set
Actual Time 8:27 AM +07 4:51 PM +07
Civil Twilight 7:47 AM +07 5:31 PM +07
Nautical Twilight 7:03 AM +07 6:14 PM +07
Astronomical Twilight 6:22 AM +07 6:56 PM +07
Moon 11:15 PM +07 (11/19) 2:18 PM +07 (11/19)
Length of Visible Light 9h 44m
Length of Day
8h 24m
Waning Gibbous, 58% of the Moon is Illuminated
Nov 19
Waning Gibbous
Nov 20
Last Quarter
Nov 26
New
Dec 4
First Quarter
Dec 12
Full

Hourly Weather History & Observations

Time (+07) Temp. Windchill Dew Point Humidity Pressure Visibility Wind Dir Wind Speed Gust Speed Precip Events Conditions
12:30 AM 23.0 °F 13.2 °F 19.4 °F 86% 29.92 in - SSW 8.9 mph - N/A   Clear
1:30 AM 23.0 °F 11.9 °F 19.4 °F 86% 29.92 in - SSE 11.2 mph - N/A   Clear
2:00 AM 23.0 °F 11.9 °F 19.4 °F 86% 29.92 in - South 11.2 mph - N/A   Clear
3:00 AM 24.8 °F 14.2 °F 19.4 °F 80% 29.92 in - South 11.2 mph - N/A   Clear
4:00 AM 24.8 °F 14.2 °F 19.4 °F 80% 29.92 in - South 11.2 mph - N/A   Clear
4:30 AM 23.0 °F 11.9 °F 17.6 °F 80% 29.89 in - South 11.2 mph - N/A   Clear
5:00 AM 23.0 °F 13.2 °F 17.6 °F 80% 29.89 in - South 8.9 mph - N/A   Clear
5:30 AM 24.8 °F 14.2 °F 17.6 °F 74% 29.92 in - South 11.2 mph - N/A   Clear
6:30 AM 26.6 °F 21.3 °F 19.4 °F 74% 29.92 in - South 4.5 mph - N/A   Clear
7:00 AM 26.6 °F 15.3 °F 19.4 °F 74% 29.92 in - SSW 13.4 mph - N/A   Clear
8:30 AM 26.6 °F 15.3 °F 21.2 °F 80% 29.92 in - SSW 13.4 mph - N/A   Clear
9:00 AM 28.4 °F 16.7 °F 21.2 °F 74% 29.92 in - SSW 15.7 mph - N/A   Clear
10:00 AM 28.4 °F 17.6 °F 19.4 °F 69% 29.92 in - SSW 13.4 mph - N/A   Clear
10:30 AM 28.4 °F 17.6 °F 19.4 °F 69% 29.92 in - SSW 13.4 mph - N/A   Clear
11:00 AM 28.4 °F 17.6 °F 19.4 °F 69% 29.92 in - SSW 13.4 mph - N/A   Clear
11:30 AM 28.4 °F 17.6 °F 19.4 °F 69% 29.92 in - SSW 13.4 mph - N/A   Clear
1:00 PM 30.2 °F 20.9 °F 19.4 °F 64% 29.92 in - South 11.2 mph - N/A   Clear
1:30 PM 30.2 °F 20.9 °F 19.4 °F 64% 29.89 in - South 11.2 mph - N/A   Clear
2:00 PM 30.2 °F 22.1 °F 19.4 °F 64% 29.89 in - South 8.9 mph - N/A   Clear
2:30 PM 30.2 °F 22.1 °F 19.4 °F 64% 29.89 in - SSW 8.9 mph - N/A   Clear
3:00 PM 30.2 °F 22.1 °F 19.4 °F 64% 29.89 in - SW 8.9 mph - N/A   Clear
3:30 PM 28.4 °F 19.9 °F 19.4 °F 69% 29.89 in - South 8.9 mph - N/A   Clear
4:30 PM 28.4 °F 17.6 °F 21.2 °F 74% 29.89 in - South 13.4 mph - N/A   Clear
5:00 PM 28.4 °F 17.6 °F 21.2 °F 74% 29.89 in - South 13.4 mph - N/A   Clear
6:00 PM 26.6 °F 17.7 °F 19.4 °F 74% 29.89 in - SSW 8.9 mph - N/A   Clear
6:30 PM 26.6 °F 19.2 °F 19.4 °F 74% 29.89 in 5.6 mi SSW 6.7 mph - N/A   Unknown
7:00 PM 26.6 °F 21.3 °F 19.4 °F 74% 29.89 in 5.6 mi South 4.5 mph - N/A   Unknown
7:30 PM 24.8 °F 17.1 °F 19.4 °F 80% 29.89 in 6.2 mi WSW 6.7 mph - N/A   Scattered Clouds
8:00 PM 24.8 °F 17.1 °F 19.4 °F 80% 29.89 in 6.2 mi SSW 6.7 mph - N/A   Scattered Clouds
8:30 PM 24.8 °F 17.1 °F 19.4 °F 80% 29.89 in 5.6 mi SSW 6.7 mph - N/A   Scattered Clouds
10:00 PM 24.8 °F - 21.2 °F 86% 29.89 in 3.1 mi Variable 2.2 mph - N/A   Smoke
10:30 PM 24.8 °F 19.2 °F 21.2 °F 86% 29.86 in 3.1 mi SSW 4.5 mph - N/A   Smoke
11:00 PM 24.8 °F 19.2 °F 21.2 °F 86% 29.86 in 5.6 mi South 4.5 mph - N/A   Unknown
11:30 PM 24.8 °F 19.2 °F 19.4 °F 80% 29.86 in - South 4.5 mph - N/A   Clear